DLH2PM EDDM-EDDF

Flight info

Callsign DLH2PM
Flight time 0h 31m
Altitude 24000
Route GIVMI6S GIVMI Y101 ERNAS T161 DEBHI DEBHI1B
Aircraft A20N/M-SDE2E3FGHIRWXY/LB1

Departure

Time 2026-05-07 17:44
Airport Munich Airport (EDDM)

Arrival

Time 2026-05-07 18:16
Airport Frankfurt Main Airport (EDDF)
Time Latitude Longitude Altitude Speed Heading
2026-05-07 16:35 48.35235 11.79334 1475 ft 0 kts 263°
2026-05-07 17:29 48.35235 11.79336 1475 ft 1 kts 264°
2026-05-07 17:29 48.35238 11.79358 1475 ft 2 kts 263°
2026-05-07 17:30 48.35239 11.79380 1475 ft 2 kts 263°
2026-05-07 17:30 48.35241 11.79402 1475 ft 2 kts 263°
2026-05-07 17:30 48.35243 11.79425 1474 ft 2 kts 263°
2026-05-07 17:30 48.35245 11.79448 1474 ft 2 kts 275°
2026-05-07 17:31 48.35241 11.79469 1474 ft 2 kts 300°
2026-05-07 17:31 48.35231 11.79486 1474 ft 2 kts 323°
2026-05-07 17:31 48.35218 11.79497 1474 ft 1 kts 346°
2026-05-07 17:31 48.35212 11.79498 1474 ft 1 kts 356°
2026-05-07 17:32 48.35208 11.79499 1474 ft 0 kts 354°
2026-05-07 17:33 48.35209 11.79499 1474 ft 0 kts 353°
2026-05-07 17:34 48.35210 11.79499 1474 ft 0 kts 354°
2026-05-07 17:34 48.35218 11.79499 1474 ft 0 kts 13°
2026-05-07 17:35 48.35233 11.79513 1474 ft 6 kts 32°
2026-05-07 17:35 48.35292 11.79567 1473 ft 12 kts 31°
2026-05-07 17:35 48.35375 11.79604 1472 ft 13 kts 353°
2026-05-07 17:35 48.35468 11.79586 1472 ft 13 kts 353°
2026-05-07 17:36 48.35565 11.79571 1471 ft 14 kts 354°
2026-05-07 17:36 48.35666 11.79554 1471 ft 14 kts 353°
2026-05-07 17:36 48.35769 11.79536 1470 ft 15 kts 353°
2026-05-07 17:36 48.35876 11.79517 1469 ft 15 kts 353°
2026-05-07 17:37 48.35972 11.79501 1468 ft 9 kts 353°
2026-05-07 17:37 48.36005 11.79495 1468 ft 2 kts 353°
2026-05-07 17:37 48.36019 11.79492 1468 ft 0 kts 353°
2026-05-07 17:38 48.36027 11.79491 1468 ft 2 kts 353°
2026-05-07 17:39 48.36062 11.79485 1468 ft 7 kts 353°
2026-05-07 17:39 48.36130 11.79473 1467 ft 12 kts 353°
2026-05-07 17:39 48.36211 11.79481 1466 ft 12 kts 51°
2026-05-07 17:39 48.36226 11.79632 1466 ft 16 kts 83°
2026-05-07 17:40 48.36240 11.79822 1465 ft 19 kts 83°
2026-05-07 17:40 48.36258 11.80042 1464 ft 22 kts 83°
2026-05-07 17:40 48.36277 11.80295 1462 ft 25 kts 83°
2026-05-07 17:40 48.36297 11.80563 1461 ft 25 kts 83°
2026-05-07 17:41 48.36318 11.80826 1459 ft 25 kts 83°
2026-05-07 17:41 48.36338 11.81081 1457 ft 24 kts 83°
2026-05-07 17:41 48.36357 11.81330 1456 ft 23 kts 83°
2026-05-07 17:41 48.36374 11.81556 1455 ft 20 kts 84°
2026-05-07 17:42 48.36390 11.81768 1455 ft 20 kts 83°
2026-05-07 17:42 48.36396 11.81916 1455 ft 9 kts 100°
2026-05-07 17:42 48.36422 11.81995 1455 ft 9 kts 22°
2026-05-07 17:42 48.36489 11.81996 1454 ft 10 kts 353°
2026-05-07 17:43 48.36577 11.81980 1454 ft 14 kts 353°
2026-05-07 17:43 48.36668 11.81908 1454 ft 17 kts 285°
2026-05-07 17:43 48.36649 11.81609 1455 ft 56 kts 263°
2026-05-07 17:43 48.36574 11.80632 1459 ft 128 kts 264°
2026-05-07 17:44 48.36452 11.79018 1640 ft 169 kts 264°
2026-05-07 17:44 48.36323 11.77286 2319 ft 171 kts 265°
2026-05-07 17:44 48.36190 11.75496 3057 ft 175 kts 265°
2026-05-07 17:44 48.36054 11.73639 3613 ft 188 kts 266°
2026-05-07 17:45 48.35909 11.71598 4076 ft 205 kts 265°
2026-05-07 17:45 48.35765 11.69332 4461 ft 230 kts 269°
2026-05-07 17:45 48.36017 11.66925 5133 ft 241 kts 292°
2026-05-07 17:45 48.36834 11.64678 5740 ft 256 kts 301°
2026-05-07 17:46 48.37821 11.62390 6442 ft 265 kts 302°
2026-05-07 17:46 48.38845 11.60099 6767 ft 266 kts 303°
2026-05-07 17:46 48.39891 11.57804 6894 ft 266 kts 303°
2026-05-07 17:46 48.40908 11.55492 7339 ft 269 kts 301°
2026-05-07 17:47 48.41871 11.53096 8338 ft 267 kts 299°
2026-05-07 17:47 48.42842 11.50701 9045 ft 276 kts 306°
2026-05-07 17:47 48.44294 11.48806 9779 ft 287 kts 329°
2026-05-07 17:47 48.46193 11.47777 10633 ft 293 kts 342°
2026-05-07 17:48 48.48192 11.47032 11134 ft 307 kts 343°
2026-05-07 17:48 48.50324 11.46205 11495 ft 325 kts 341°
2026-05-07 17:48 48.52531 11.45240 11824 ft 342 kts 340°
2026-05-07 17:48 48.54872 11.44133 12234 ft 356 kts 339°
2026-05-07 17:49 48.57204 11.42981 12916 ft 360 kts 339°
2026-05-07 17:49 48.59592 11.41778 13658 ft 363 kts 339°
2026-05-07 17:49 48.61992 11.40555 14352 ft 367 kts 339°
2026-05-07 17:49 48.64401 11.39321 15015 ft 370 kts 339°
2026-05-07 17:50 48.66824 11.38077 15670 ft 374 kts 338°
2026-05-07 17:50 48.69233 11.36650 16311 ft 375 kts 333°
2026-05-07 17:50 48.71569 11.34870 16932 ft 377 kts 327°
2026-05-07 17:50 48.73790 11.32778 17547 ft 379 kts 324°
2026-05-07 17:51 48.75996 11.30550 18145 ft 382 kts 323°
2026-05-07 17:51 48.78165 11.28332 18703 ft 386 kts 323°
2026-05-07 17:51 48.80381 11.26071 19261 ft 389 kts 323°
2026-05-07 17:51 48.82626 11.23750 19815 ft 392 kts 322°
2026-05-07 17:52 48.84789 11.21272 20353 ft 394 kts 319°
2026-05-07 17:52 48.86857 11.18600 20889 ft 397 kts 316°
2026-05-07 17:52 48.88916 11.15760 21415 ft 400 kts 316°
2026-05-07 17:52 48.90955 11.12911 21929 ft 403 kts 315°
2026-05-07 17:53 48.93032 11.10004 22442 ft 406 kts 316°
2026-05-07 17:53 48.95095 11.07119 22926 ft 409 kts 316°
2026-05-07 17:53 48.97200 11.04178 23415 ft 412 kts 316°
2026-05-07 17:53 48.99303 11.01232 23866 ft 415 kts 316°
2026-05-07 17:54 49.01421 10.98263 24040 ft 417 kts 316°
2026-05-07 17:54 49.03553 10.95265 24041 ft 416 kts 316°
2026-05-07 17:54 49.05659 10.92303 24043 ft 416 kts 316°
2026-05-07 17:54 49.07791 10.89302 24044 ft 416 kts 316°
2026-05-07 17:55 49.09901 10.86326 24043 ft 416 kts 316°
2026-05-07 17:55 49.11998 10.83365 24044 ft 416 kts 316°
2026-05-07 17:55 49.14105 10.80381 24043 ft 416 kts 316°
2026-05-07 17:55 49.16209 10.77399 24043 ft 416 kts 316°
2026-05-07 17:56 49.18323 10.74400 24044 ft 416 kts 316°
2026-05-07 17:56 49.20414 10.71315 24043 ft 415 kts 314°
2026-05-07 17:56 49.22440 10.68161 24048 ft 421 kts 314°
2026-05-07 17:56 49.24504 10.64905 24051 ft 435 kts 313°
2026-05-07 17:57 49.26637 10.61533 24050 ft 447 kts 313°
2026-05-07 17:57 49.28058 10.59286 24049 ft 451 kts 314°
2026-05-07 17:57 49.30992 10.54645 23820 ft 452 kts 314°
2026-05-07 17:57 49.33157 10.51219 23571 ft 450 kts 313°
2026-05-07 17:58 49.35253 10.47695 23321 ft 449 kts 310°
2026-05-07 17:58 49.37224 10.43976 23069 ft 447 kts 307°
2026-05-07 17:58 49.39055 10.40130 22819 ft 445 kts 305°
2026-05-07 17:58 49.40807 10.36303 22571 ft 444 kts 305°
2026-05-07 17:59 49.42556 10.32450 22323 ft 442 kts 304°
2026-05-07 17:59 49.44322 10.28554 22070 ft 441 kts 304°
2026-05-07 17:59 49.46050 10.24744 21823 ft 439 kts 304°
2026-05-07 17:59 49.47812 10.20860 21570 ft 438 kts 304°
2026-05-07 18:00 49.49538 10.17051 21321 ft 436 kts 304°
2026-05-07 18:00 49.51262 10.13245 21071 ft 434 kts 304°
2026-05-07 18:00 49.52967 10.09476 20823 ft 433 kts 304°
2026-05-07 18:00 49.54680 10.05682 20572 ft 431 kts 304°
2026-05-07 18:01 49.56375 10.01924 20310 ft 430 kts 304°
2026-05-07 18:01 49.58068 9.98163 20006 ft 428 kts 304°
2026-05-07 18:01 49.59763 9.94393 19632 ft 426 kts 304°
2026-05-07 18:01 49.61447 9.90643 19166 ft 423 kts 304°
2026-05-07 18:02 49.64752 9.83267 18156 ft 416 kts 304°
2026-05-07 18:02 49.66388 9.79609 17632 ft 412 kts 304°
2026-05-07 18:02 49.67989 9.76023 17116 ft 409 kts 304°
2026-05-07 18:03 49.69586 9.72441 16601 ft 405 kts 304°
2026-05-07 18:03 49.71181 9.68856 16081 ft 402 kts 304°
2026-05-07 18:03 49.72740 9.65348 15571 ft 398 kts 304°
2026-05-07 18:03 49.74295 9.61845 15059 ft 395 kts 304°
2026-05-07 18:04 49.75889 9.58461 14531 ft 391 kts 309°
2026-05-07 18:04 49.77692 9.55334 14094 ft 382 kts 313°
2026-05-07 18:04 49.79460 9.52429 13870 ft 368 kts 313°
2026-05-07 18:04 49.81196 9.49605 13641 ft 355 kts 313°
2026-05-07 18:05 49.82870 9.46887 13245 ft 349 kts 313°
2026-05-07 18:05 49.84551 9.44160 12693 ft 347 kts 313°
2026-05-07 18:05 49.86198 9.41492 12178 ft 345 kts 313°
2026-05-07 18:05 49.87853 9.38816 11675 ft 341 kts 313°
2026-05-07 18:06 49.89489 9.36167 11155 ft 339 kts 313°
2026-05-07 18:06 49.91093 9.33561 10640 ft 337 kts 313°
2026-05-07 18:06 49.92679 9.30972 10368 ft 327 kts 313°
2026-05-07 18:06 49.94225 9.28443 9978 ft 325 kts 313°
2026-05-07 18:07 49.95755 9.25930 9530 ft 321 kts 313°
2026-05-07 18:07 49.97288 9.23406 9076 ft 318 kts 313°
2026-05-07 18:07 49.98799 9.20904 8624 ft 315 kts 313°
2026-05-07 18:07 50.00282 9.18442 8099 ft 312 kts 313°
2026-05-07 18:08 50.01731 9.16019 7552 ft 306 kts 313°
2026-05-07 18:08 50.03156 9.13618 7002 ft 301 kts 313°
2026-05-07 18:08 50.04572 9.11223 6447 ft 297 kts 313°
2026-05-07 18:08 50.05935 9.08908 5904 ft 293 kts 313°
2026-05-07 18:09 50.07305 9.06577 5351 ft 290 kts 313°
2026-05-07 18:09 50.08642 9.04282 4804 ft 283 kts 310°
2026-05-07 18:09 50.09572 9.01681 4272 ft 273 kts 289°
2026-05-07 18:09 50.10043 8.98972 4013 ft 253 kts 284°
2026-05-07 18:10 50.10403 8.96407 3985 ft 234 kts 283°
2026-05-07 18:10 50.10725 8.93994 3982 ft 219 kts 283°
2026-05-07 18:10 50.11018 8.91747 3976 ft 204 kts 280°
2026-05-07 18:10 50.11069 8.89630 3968 ft 190 kts 264°
2026-05-07 18:11 50.10823 8.87702 4028 ft 177 kts 256°
2026-05-07 18:11 50.10594 8.86453 4071 ft 179 kts 255°
2026-05-07 18:11 50.10091 8.84001 3749 ft 177 kts 253°
2026-05-07 18:11 50.09682 8.82188 3506 ft 177 kts 252°
2026-05-07 18:12 50.09258 8.80393 3266 ft 176 kts 251°
2026-05-07 18:12 50.08833 8.78630 3029 ft 176 kts 250°
2026-05-07 18:12 50.08398 8.76847 2785 ft 171 kts 250°
2026-05-07 18:12 50.08083 8.75137 2509 ft 163 kts 261°
2026-05-07 18:13 50.07910 8.73443 2331 ft 155 kts 260°
2026-05-07 18:13 50.07619 8.71776 2275 ft 163 kts 252°
2026-05-07 18:13 50.07217 8.70106 2169 ft 166 kts 251°
2026-05-07 18:13 50.06821 8.68458 1883 ft 156 kts 252°
2026-05-07 18:14 50.06464 8.66927 1613 ft 146 kts 252°
2026-05-07 18:14 50.06119 8.65460 1284 ft 143 kts 252°
2026-05-07 18:14 50.05774 8.64047 1104 ft 141 kts 251°
2026-05-07 18:14 50.05430 8.62604 926 ft 142 kts 252°
2026-05-07 18:15 50.05097 8.61156 756 ft 141 kts 252°
2026-05-07 18:15 50.04755 8.59742 579 ft 141 kts 252°
2026-05-07 18:15 50.04414 8.58299 381 ft 139 kts 251°
2026-05-07 18:15 50.04120 8.57047 371 ft 103 kts 250°
2026-05-07 18:16 50.03931 8.56255 371 ft 49 kts 249°
2026-05-07 18:16 50.03883 8.55882 371 ft 18 kts 279°
2026-05-07 18:16 50.03898 8.55748 371 ft 2 kts 280°
2026-05-07 18:16 50.03902 8.55710 371 ft 4 kts 280°
2026-05-07 18:17 50.03908 8.55656 371 ft 5 kts 285°
2026-05-07 18:17 50.03923 8.55626 371 ft 2 kts 337°
2026-05-07 18:17 50.03930 8.55625 371 ft 0 kts
2026-05-07 18:17 50.03932 8.55625 371 ft 0 kts
2026-05-07 18:18 50.03936 8.55626 371 ft 2 kts
2026-05-07 18:18 50.03971 8.55636 371 ft 7 kts 34°
2026-05-07 18:18 50.03991 8.55718 371 ft 8 kts 75°
2026-05-07 18:19 50.04014 8.55809 371 ft 9 kts 68°
2026-05-07 18:19 50.04041 8.55907 371 ft 10 kts 57°
2026-05-07 18:19 50.04104 8.55903 371 ft 10 kts 338°
2026-05-07 18:19 50.04174 8.55860 371 ft 11 kts 342°
2026-05-07 18:20 50.04233 8.55911 371 ft 11 kts 69°
2026-05-07 18:20 50.04264 8.56032 371 ft 12 kts 68°
2026-05-07 18:20 50.04294 8.56158 371 ft 12 kts 70°
2026-05-07 18:20 50.04324 8.56290 371 ft 13 kts 71°
2026-05-07 18:21 50.04352 8.56415 371 ft 11 kts 71°
2026-05-07 18:21 50.04382 8.56539 371 ft 12 kts 70°
2026-05-07 18:21 50.04414 8.56674 371 ft 13 kts 70°
2026-05-07 18:21 50.04449 8.56815 371 ft 14 kts 57°
2026-05-07 18:22 50.04535 8.56852 371 ft 11 kts 12°
2026-05-07 18:22 50.04556 8.56865 371 ft 9 kts 24°
2026-05-07 18:22 50.04599 8.56792 371 ft 5 kts 294°
2026-05-07 18:22 50.04606 8.56768 371 ft 0 kts 294°
2026-05-07 18:23 50.04607 8.56765 371 ft 0 kts 294°